CW2751 Weather Reports


Display with metric or nautical units.
time (UTC)temp
F
wind
direction
speed
MPH
gust
MPH
rain 1hr
in
rain 24hr
in
rain mn
in
humidity
%
barometer
mb
20260904140046 73 203 7.0 0.0 0.00 0.00 0.00 56 1001.0
20260904134554 72 185 8.0 0.0 0.00 0.00 0.00 57 1001.2
20260904133047 71 192 7.0 0.0 0.00 0.00 0.00 58 1001.0
20260904131553 70 206 5.0 0.0 0.00 0.00 0.00 60 1000.9
20260904130053 70 193 4.0 0.0 0.00 0.00 0.00 61 999.7
20260904124523 70 169 5.0 0.0 0.00 0.00 0.00 61 999.5
20260904123029 70 161 5.0 0.0 0.00 0.00 0.00 60 999.5
20260904121529 70 202 4.0 0.0 0.00 0.00 0.00 60 999.1
20260904120038 70 178 4.0 0.0 0.00 0.00 0.00 59 998.5
20260904114544 71 151 3.0 0.0 0.00 0.00 0.00 58 998.5
20260904113033 71 161 5.0 0.0 0.00 0.00 0.00 57 998.2
20260904111532 71 190 4.0 0.0 0.00 0.00 0.00 57 998.5
20260904110044 72 185 4.0 0.0 0.00 0.00 0.00 57 998.0
20260904104512 72 162 4.0 0.0 0.00 0.00 0.00 55 998.0
20260904103040 73 227 4.0 0.0 0.00 0.00 0.00 54 997.9
20260904101536 73 183 4.0 0.0 0.00 0.00 0.00 54 997.9
20260904100058 73 154 4.0 0.0 0.00 0.00 0.00 54 998.0
20260904100001 73 210 4.0 0.0 0.00 0.00 0.00 54 998.0
20260904094540 73 174 4.0 0.0 0.00 0.00 0.00 55 997.9
20260904093053 72 142 4.0 0.0 0.00 0.00 0.00 57 998.0
20260904091533 71 155 3.0 0.0 0.00 0.00 0.00 59 998.2
20260904090032 70 140 2.0 0.0 0.00 0.00 0.00 62 998.4
20260904084528 70 137 2.0 0.0 0.00 0.00 0.00 65 998.5
20260904083029 70 128 3.0 0.0 0.00 0.00 0.00 67 998.6
20260904081524 70 166 2.0 0.0 0.00 0.00 0.00 67 998.9
20260904080031 70 110 2.0 0.0 0.00 0.00 0.00 66 999.0
20260904074528 70 161 2.0 0.0 0.00 0.00 0.00 65 999.0
20260904073103 70 165 1.0 0.0 0.00 0.00 0.00 64 999.0
20260904071506 70 152 1.0 0.0 0.00 0.00 0.00 63 999.1
20260904070035 70 178 2.0 0.0 0.00 0.00 0.00 62 999.5
20260904064507 71 135 3.0 0.0 0.00 0.00 0.00 60 999.6
20260904063024 72 137 1.0 0.0 0.00 0.00 0.00 57 999.8
20260904061540 73 100 2.0 0.0 0.00 0.00 0.00 55 999.3
20260904060058 74 97 3.0 0.0 0.00 0.00 0.00 54 1000.0
20260904054556 74 90 4.0 0.0 0.00 0.00 0.00 52 999.9
20260904053033 73 109 6.0 0.0 0.00 0.00 0.00 55 999.9
20260904051546 73 124 4.0 0.0 0.00 0.00 0.00 56 999.8
20260904050031 73 97 5.0 0.0 0.00 0.00 0.00 57 1000.3
20260904044550 73 99 3.0 0.0 0.00 0.00 0.00 56 1000.4
20260904043047 73 104 5.0 0.0 0.00 0.00 0.00 56 1000.5
20260904041543 74 85 6.0 0.0 0.00 0.00 0.00 55 1000.5
20260904040053 74 97 6.0 0.0 0.00 0.00 0.00 55 1001.2
20260904034553 74 92 6.0 0.0 0.00 0.00 0.00 55 1001.4
20260904033027 75 110 5.0 0.0 0.00 0.00 0.00 53 1001.0
20260904031553 75 106 6.0 0.0 0.00 0.00 0.00 52 1001.0
20260904030057 76 100 6.0 0.0 0.00 0.00 0.00 51 1001.3
20260904024606 76 89 5.0 0.0 0.00 0.00 0.00 50 1001.2
20260904024508 76 89 5.0 0.0 0.00 0.00 0.00 50 1001.2
20260904023036 77 99 5.0 0.0 0.00 0.00 0.00 49 1001.0
20260904021549 77 102 6.0 0.0 0.00 0.00 0.00 48 1000.8
20260904020043 79 106 5.0 0.0 0.00 0.00 0.00 43 1001.0
20260904014547 81 85 5.0 0.0 0.00 0.00 0.00 39 1000.6
20260904013012 84 85 3.0 0.0 0.00 0.00 0.00 35 1000.2
20260904011516 87 114 3.0 0.0 0.00 0.00 0.00 33 999.8
20260904010033 88 73 3.0 0.0 0.00 0.00 0.00 30 999.8
20260904004533 89 65 2.0 0.0 0.00 0.00 0.00 30 999.7
20260904003036 90 73 3.0 0.0 0.00 0.00 0.00 29 999.5
20260904001555 92 62 2.0 0.0 0.00 0.00 0.00 25 999.6
20260904000008 94 42 3.0 0.0 0.00 0.00 0.00 24 999.1
20260903234513 95 104 1.0 0.0 0.00 0.00 0.00 22 999.0
20260903233037 97 54 3.0 0.0 0.00 0.00 0.00 20 999.1
20260903231541 97 49 2.0 0.0 0.00 0.00 0.00 20 998.7
20260903230046 97 90 4.0 0.0 0.00 0.00 0.00 19 998.5
20260903224540 98 61 4.0 0.0 0.00 0.00 0.00 20 998.5
20260903223045 99 130 1.0 0.0 0.00 0.00 0.00 23 998.5
20260903221518 97 68 3.0 0.0 0.00 0.00 0.00 20 998.6
20260903220100 97 73 2.0 0.0 0.00 0.00 0.00 21 998.8
20260903214511 96 257 3.0 0.0 0.00 0.00 0.00 21 998.8
20260903213014 96 79 2.0 0.0 0.00 0.00 0.00 20 998.8
20260903211528 96 358 3.0 0.0 0.00 0.00 0.00 21 998.8
20260903210051 95 351 6.0 0.0 0.00 0.00 0.00 23 998.9
20260903204554 95 38 6.0 0.0 0.00 0.00 0.00 25 998.8
20260903203100 95 34 5.0 0.0 0.00 0.00 0.00 23 999.0
20260903203002 95 79 4.0 0.0 0.00 0.00 0.00 25 999.0
20260903201534 94 28 5.0 0.0 0.00 0.00 0.00 26 999.2
20260903200020 94 288 5.0 0.0 0.00 0.00 0.00 25 998.8
20260903194550 94 39 7.0 0.0 0.00 0.00 0.00 27 999.0
20260903193023 94 356 5.0 0.0 0.00 0.00 0.00 27 999.0
20260903191545 93 327 5.0 0.0 0.00 0.00 0.00 27 999.1
20260903190013 92 10 5.0 0.0 0.00 0.00 0.00 27 999.7
20260903184528 92 315 6.0 0.0 0.00 0.00 0.00 28 999.7
20260903183029 91 340 6.0 0.0 0.00 0.00 0.00 28 1000.1
20260903181557 90 6 6.0 0.0 0.00 0.00 0.00 32 1000.2
20260903180108 88 327 6.0 0.0 0.00 0.00 0.00 33 1000.1
20260903174511 87 312 7.0 0.0 0.00 0.00 0.00 35 1000.5
20260903173017 86 260 8.0 0.0 0.00 0.00 0.00 34 1000.6
20260903171509 85 291 9.0 0.0 0.00 0.00 0.00 35 1000.8
20260903170035 84 274 8.0 0.0 0.00 0.00 0.00 38 1000.3
20260903164533 83 285 8.0 0.0 0.00 0.00 0.00 40 1000.3
20260903163044 81 294 7.0 0.0 0.00 0.00 0.00 43 1000.3
20260903161539 80 267 9.0 0.0 0.00 0.00 0.00 45 1000.5
20260903160011 78 325 8.0 0.0 0.00 0.00 0.00 47 1000.7
20260903154549 77 254 10.0 0.0 0.00 0.00 0.00 48 1001.0
20260903153015 75 281 11.0 0.0 0.00 0.00 0.00 50 1001.1
20260903151541 74 277 10.0 0.0 0.00 0.00 0.00 52 1001.1
20260903150045 72 310 9.0 0.0 0.00 0.00 0.00 55 1001.1
20260903144548 71 302 8.0 0.0 0.00 0.00 0.00 57 1001.2
20260903143011 69 296 11.0 0.0 0.00 0.00 0.00 60 1001.3
20260903141508 67 296 10.0 0.0 0.00 0.00 0.00 64 1001.3